Tracking 29892 objects as of 21-Nov-2024
HD Live streaming from Space Station
objects crossing your sky now

STARLINK-31050

Track STARLINK-31050 now!
10-day predictions
STARLINK-31050 is classified as:


NORAD ID: 58546
Int'l Code: 2023-192R
Perigee: 481.9 km
Apogee: 482.9 km
Inclination: 53.2 °
Period: 94.1 minutes
Semi major axis: 6853 km
RCS: Unknown
Launch date: December 8, 2023
Source: United States (US)
Launch site: AIR FORCE WESTERN TEST RANGE (AFWTR)
Your satellite tracking list
Your tracking list is empty




NASA's NSSDC Master Catalog

Two Line Element Set (TLE):
1 58546U 23192R   24325.77670821  .00000944  00000-0  43994-4 0  9999
2 58546  53.1602 104.2638 0000739 113.3761 246.7317 15.30195522 53429
Source of the keplerian elements: AFSPC